Perth, Australia

2:30 PM AWST on April 23, 2017 (GMT +0800)
Perth International

Weather History for YPPH - December, 2012

Change the Weather History Date:

Sunday, December 2, 2012

  Actual Average Record
Temperature  
Mean Temperature 70 °F -  
Max Temperature 85 °F 84 °F 97 °F (2015)
Min Temperature 54 °F 59 °F 41 °F (2002)
Cooling Degree Days 4    
Growing Degree Days 20 (Base 50)    
Moisture  
Dew Point 46 °F    
Average Humidity 44    
Maximum Humidity 82    
Minimum Humidity 12    
Precipitation  
Precipitation 0.00 in 0.01 in - ()
Sea Level Pressure  
Sea Level Pressure 30.10 in    
Wind  
Wind Speed 12 mph ()    
Max Wind Speed 25 mph    
Max Gust Speed 34 mph    
Visibility 18.2 miles    
Events      
Averages and records for this station are not official NWS values.
T = Trace of Precipitation, MM = Missing Value Source: Averaged Metar Reports

Daily Weather History Graph

Daily Weather History Graph

Search for Another Location

Airport or City:

Trip Planner

Search our weather history database for the weather conditions in past years. The results will help you decide how hot, cold, wet, or windy it might be!

Date:

Astronomy

Dec. 02, 2012 Rise Set
Actual Time 5:02 AM AWST 7:08 PM AWST
Civil Twilight 4:35 AM AWST 7:36 PM AWST
Nautical Twilight 4:01 AM AWST 8:10 PM AWST
Astronomical Twilight 3:25 AM AWST 8:46 PM AWST
Moon 9:52 PM AWST (12/2) 7:53 AM AWST (12/2)
Length of Visible Light 15h 01m
Length of Day
14h 05m
Waning Gibbous, 89% of the Moon is Illuminated
Dec 2
Waning Gibbous
Dec 6
Last Quarter
Dec 13
New
Dec 20
First Quarter
Dec 28
Full

Hourly Weather History & Observations

Time (AWST) Temp. Dew Point Humidity Pressure Visibility Wind Dir Wind Speed Gust Speed Precip Events Conditions
12:00 AM 58 °F 51 °F 71% 30.15 in 19 mi South 8.1 mph - -   Partly Cloudy
12:00 AM 57.2 °F 51.8 °F 82% 30.15 in - South 8.1 mph - N/A   Clear
12:30 AM 59.0 °F 51.8 °F 77% 30.12 in - SSW 5.8 mph - N/A   Clear
1:00 AM 55.4 °F 50.0 °F 82% 30.12 in - SSW 8.1 mph - N/A   Clear
1:30 AM 57.2 °F 48.2 °F 72% 30.12 in - SSE 4.6 mph - N/A   Clear
2:00 AM 61 °F 45 °F 45% 30.12 in - ESE 13.8 mph - -  
2:00 AM 60.8 °F 44.6 °F 55% 30.12 in - ESE 13.8 mph - N/A   Clear
2:30 AM 60.8 °F 44.6 °F 55% 30.12 in - ESE 18.4 mph - N/A   Clear
3:00 AM 61 °F 44 °F 43% 30.12 in 19 mi ESE 13.8 mph - -   Partly Cloudy
3:00 AM 60.8 °F 44.6 °F 55% 30.09 in - ESE 13.8 mph - N/A   Clear
3:20 AM 60.8 °F 44.6 °F 55% 30.12 in - East 18.4 mph 29.9 mph N/A   Clear
3:33 AM 60.8 °F 44.6 °F 55% 30.12 in - East 19.6 mph 31.1 mph N/A   Clear
4:02 AM 60.8 °F 44.6 °F 55% 30.09 in - East 19.6 mph 31.1 mph N/A   Clear
4:30 AM 59.0 °F 44.6 °F 59% 30.09 in - ESE 19.6 mph 31.1 mph N/A   Clear
5:00 AM 59 °F 45 °F 49% 30.13 in - East 21.9 mph - -  
5:00 AM 59.0 °F 44.6 °F 59% 30.12 in - East 21.9 mph - N/A   Clear
5:11 AM 59.0 °F 44.6 °F 59% 30.12 in - East 21.9 mph 34.5 mph N/A   Clear
5:30 AM 59.0 °F 44.6 °F 59% 30.12 in - East 25.3 mph - N/A   Clear
6:00 AM 59 °F 45 °F 49% 30.14 in 16 mi East 25.3 mph - -   Haze
6:00 AM 59.0 °F 44.6 °F 59% 30.12 in - East 25.3 mph - N/A   Clear
6:30 AM 59.0 °F 46.4 °F 63% 30.15 in - East 19.6 mph - N/A   Clear
7:00 AM 60.8 °F 46.4 °F 59% 30.15 in - East 10.4 mph - N/A   Clear
7:30 AM 60.8 °F 46.4 °F 59% 30.15 in - ENE 6.9 mph - N/A   Clear
8:00 AM 62 °F 46 °F 46% 30.19 in - East 8.1 mph - -  
8:00 AM 62.6 °F 46.4 °F 55% 30.18 in - East 8.1 mph - N/A   Clear
8:30 AM 62.6 °F 46.4 °F 55% 30.18 in - ENE 16.1 mph - N/A   Clear
9:00 AM 67 °F 47 °F 37% 30.19 in 16 mi East 12.7 mph - -   Smoke
9:00 AM 68.0 °F 46.4 °F 46% 30.18 in - East 12.7 mph - N/A   Clear
9:30 AM 69.8 °F 46.4 °F 43% 30.15 in - ESE 12.7 mph - N/A   Clear
10:00 AM 71.6 °F 46.4 °F 41% 30.15 in - ESE 12.7 mph - N/A   Clear
10:30 AM 73.4 °F 44.6 °F 36% 30.15 in - East 15.0 mph - N/A   Clear
11:00 AM 76 °F 45 °F 23% 30.15 in - East 13.8 mph - -  
11:00 AM 77.0 °F 44.6 °F 32% 30.15 in - East 13.8 mph - N/A   Clear
11:30 AM 77.0 °F 44.6 °F 32% 30.12 in - ESE 13.8 mph - N/A   Clear
12:00 PM 78 °F 44 °F 20% 30.13 in 19 mi East 12.7 mph - -   Partly Cloudy
12:00 PM 78.8 °F 44.6 °F 30% 30.12 in - East 12.7 mph - N/A   Clear
12:30 PM 80.6 °F 44.6 °F 28% 30.09 in - East 10.4 mph - N/A   Clear
1:00 PM 80.6 °F 42.8 °F 26% 30.09 in - SSE 8.1 mph - N/A   Clear
1:30 PM 82.4 °F 44.6 °F 26% 30.09 in - SSE 11.5 mph - N/A   Clear
2:00 PM 82 °F 43 °F 16% 30.08 in - South 5.8 mph - -  
2:00 PM 82.4 °F 42.8 °F 25% 30.06 in - South 5.8 mph - N/A   Clear
2:30 PM 84.2 °F 42.8 °F 23% 30.06 in - NE 6.9 mph - N/A   Clear
3:00 PM 84 °F 40 °F 12% 30.06 in 19 mi South 10.4 mph - -   Partly Cloudy
3:00 PM 84.2 °F 41.0 °F 22% 30.04 in - South 12.7 mph - N/A   Clear
3:30 PM 84.2 °F 41.0 °F 22% 30.04 in - SE 6.9 mph - N/A   Clear
4:00 PM 86.0 °F 41.0 °F 20% 30.04 in - South 11.5 mph - N/A   Clear
4:30 PM 86.0 °F 41.0 °F 20% 30.04 in - SSE 10.4 mph - N/A   Clear
5:00 PM 85 °F 41 °F 12% 30.04 in - ESE 9.2 mph - -  
5:00 PM 84.2 °F 41.0 °F 22% 30.04 in - ESE 9.2 mph - N/A   Clear
5:30 PM 84.2 °F 41.0 °F 22% 30.04 in - SSE 12.7 mph - N/A   Clear
6:00 PM 83 °F 39 °F 12% 30.05 in 19 mi South 11.5 mph - -   Partly Cloudy
6:00 PM 84.2 °F 39.2 °F 20% 30.04 in - SSW 11.5 mph - N/A   Clear
6:30 PM 78.8 °F 53.6 °F 42% 30.04 in - SSW 16.1 mph - N/A   Clear
7:00 PM 75.2 °F 53.6 °F 47% 30.06 in - SSW 16.1 mph - N/A   Clear
7:30 PM 73.4 °F 55.4 °F 53% 30.06 in - SSW 16.1 mph - N/A   Clear
8:00 PM 72 °F 55 °F 44% 30.09 in - South 17.3 mph - -  
8:00 PM 73.4 °F 55.4 °F 53% 30.06 in - South 17.3 mph - N/A   Clear
8:30 PM 71.6 °F 53.6 °F 53% 30.09 in - South 17.3 mph - N/A   Clear
9:00 PM 70 °F 54 °F 47% 30.10 in 19 mi South 15.0 mph - -   Partly Cloudy
9:00 PM 69.8 °F 53.6 °F 56% 30.09 in - South 15.0 mph - N/A   Clear
9:30 PM 68.0 °F 53.6 °F 60% 30.09 in - South 11.5 mph - N/A   Clear
10:00 PM 68.0 °F 55.4 °F 64% 30.09 in - South 11.5 mph - N/A   Clear
10:30 PM 68.0 °F 51.8 °F 56% 30.09 in - South 10.4 mph - N/A   Clear
11:00 PM 71 °F 43 °F 26% 30.09 in - South 12.7 mph - -  
11:00 PM 69.8 °F 42.8 °F 38% 30.09 in - South 12.7 mph - N/A   Clear
11:30 PM 69.8 °F 42.8 °F 38% 30.06 in - South 13.8 mph - N/A   Clear